This is the latest recevied weather packets stored in our database for station/object KG4LKY-5. If no packets are shown the sender has not sent any weather packets the latest 10 day(s).
| Time | Temp. | Humidity | Pressure | Rain* | Wind** | Luminosity | Snow |
|---|---|---|---|---|---|---|---|
| 1777914356 | 21.67° C | 42% | 1014.4 hPa | 1.78 mm | - | - | - |
| 1777914055 | 21.67° C | 42% | 1014.3 hPa | 1.78 mm | - | - | - |
| 1777913755 | 21.67° C | 44% | 1014.3 hPa | 1.78 mm | - | - | - |
| 1777913455 | 21.67° C | 46% | 1014.5 hPa | 1.78 mm | - | - | - |
| 1777913155 | 21.11° C | 48% | 1014.5 hPa | 1.78 mm | - | - | - |
| 1777912854 | 20.56° C | 48% | 1014.6 hPa | 1.78 mm | - | - | - |
| 1777912554 | 20.56° C | 48% | 1014.6 hPa | 1.78 mm | - | - | - |
| 1777912254 | 20° C | 46% | 1014.7 hPa | 1.78 mm | - | - | - |
| 1777911953 | 20° C | 49% | 1014.9 hPa | 1.78 mm | - | - | - |
| 1777911652 | 20° C | 51% | 1015 hPa | 1.78 mm | - | - | - |
| 1777910749 | 20° C | 52% | 1015.2 hPa | 1.78 mm | - | - | - |
| 1777910147 | 19.44° C | 45% | 1015.6 hPa | 1.78 mm | - | - | - |
| 1777909546 | 18.89° C | 54% | 1015.7 hPa | 1.78 mm | - | - | - |
| 1777908943 | 18.89° C | 51% | 1015.8 hPa | 1.78 mm | - | - | - |
| 1777908341 | 17.78° C | 55% | 1015.9 hPa | 1.78 mm | - | - | - |
| 1777907740 | 17.22° C | 64% | 1016 hPa | 1.78 mm | - | - | - |
| 1777907139 | 16.67° C | 59% | 1016 hPa | 1.78 mm | - | - | - |
| 1777906840 | 16.11° C | 64% | 1015.9 hPa | 1.78 mm | - | - | - |
| 1777906539 | 16.11° C | 62% | 1015.9 hPa | 1.78 mm | - | - | - |
| 1777906239 | 15.56° C | 66% | 1016 hPa | 1.78 mm | - | - | - |
| 1777905938 | 15.56° C | 67% | 1016.1 hPa | 1.78 mm | - | - | - |
| 1777905637 | 15.56° C | 71% | 1016.1 hPa | 1.78 mm | - | - | - |
| 1777905338 | 15° C | 71% | 1016.2 hPa | 1.78 mm | - | - | - |
| 1777905037 | 15.56° C | 70% | 1016.3 hPa | 1.78 mm | - | - | - |
| 1777904737 | 14.44° C | 71% | 1016.3 hPa | 1.78 mm | - | - | - |
* Rain since midnight (hover to see other rain measurements)
** Current wind speed in m/s (hover to see current wind gust speed)